Location: Munkebjergskolens Observatorium
(55.3864°N, 10.3987°E)
Time: 23:44:27
(UTC+01:00)

Envisat - Pass Details

Date: 06 December 2022
Orbit: 763 x 765 km, 98.2° (Epoch: 01 February)

Event Time Altitude Azimuth Distance (km) Brightness Sun altitude
Rises 16:27:37 0° 197° (SSW) 3,223 7.1 -5.2°
Reaches altitude 10° 16:30:12 10° 208° (SSW) 2,302 6.6 -5.5°
Maximum altitude 16:34:34 28° 268° (W) 1,401 5.2 -6.0°
Drops below altitude 10° 16:38:58 10° 327° (NNW) 2,317 5.5 -6.5°
Sets 16:41:36 0° 339° (NNW) 3,248 6.2 -6.8°
